VK2XSE Weather Reports


time (UTC)temp
C
wind
direction
speed
KPH
gust
KPH
rain 1hr
cm
rain 24hr
cm
rain mn
cm
humidity
%
barometer
mb
20260505101517 11 0.0 3.2 0.00 0.00 0.00 83 1023.1
20260505100517 11 0.0 3.2 0.00 0.00 0.00 83 1023.0
20260505095517 12 0.0 3.2 0.00 0.00 0.00 83 1022.9
20260505094517 12 0.0 3.2 0.00 0.00 0.00 82 1023.0
20260505093517 12 0.0 1.6 0.00 0.00 0.00 81 1022.9
20260505092517 12 203 1.6 3.2 0.00 0.00 0.00 80 1023.0
20260505091517 12 203 1.6 1.6 0.00 0.00 0.00 78 1022.9
20260505090517 13 0.0 3.2 0.00 0.00 0.00 77 1022.8
20260505085517 13 203 1.6 3.2 0.00 0.00 0.00 76 1022.7
20260505084517 14 203 1.6 3.2 0.00 0.00 0.00 75 1022.6
20260505083517 14 203 3.2 4.8 0.00 0.00 0.00 72 1022.6
20260505082517 15 203 4.8 4.8 0.00 0.00 0.00 71 1022.4
20260505081517 15 203 3.2 3.2 0.00 0.00 0.00 71 1022.3
20260505080517 15 0.0 0.0 0.00 0.00 0.00 71 1022.2
20260505075517 15 0.0 1.6 0.00 0.00 0.00 70 1022.1
20260505074517 16 0.0 3.2 0.00 0.00 0.00 69 1022.0
20260505073517 16 0.0 3.2 0.00 0.00 0.00 67 1021.9
20260505072517 16 0.0 0.0 0.00 0.00 0.00 65 1021.9
20260505071517 16 0.0 0.0 0.00 0.00 0.00 64 1021.8
20260505070517 16 203 1.6 4.8 0.00 0.00 0.00 63 1021.7
20260505065517 17 0 1.6 8.0 0.00 0.00 0.00 62 1021.5
20260505064517 17 0 1.6 4.8 0.00 0.00 0.00 61 1021.5
20260505063517 17 0 4.8 14.5 0.00 0.00 0.00 60 1021.5
20260505062517 17 248 1.6 4.8 0.00 0.00 0.00 60 1021.5
20260505061517 17 270 1.6 3.2 0.00 0.00 0.00 59 1021.4
20260505060517 17 0 1.6 3.2 0.00 0.00 0.00 61 1021.4
20260505055517 17 0 1.6 3.2 0.00 0.00 0.00 59 1021.3
20260505054517 18 0 1.6 3.2 0.00 0.00 0.00 57 1021.3
20260505053517 17 0 1.6 6.4 0.00 0.00 0.00 58 1021.2
20260505052517 17 0 1.6 4.8 0.00 0.00 0.00 57 1021.2
20260505051517 17 0.0 3.2 0.00 0.00 0.00 60 1021.0
20260505050517 18 0 1.6 3.2 0.00 0.00 0.00 57 1020.9
20260505041517 18 0 6.4 14.5 0.00 0.00 0.00 56 1020.9
20260505040517 18 0 3.2 9.7 0.00 0.00 0.00 56 1020.9
20260505035516 18 0 1.6 11.3 0.00 0.00 0.00 55 1020.9
20260505034516 18 0 1.6 4.8 0.00 0.00 0.00 60 1020.8
20260505033516 18 0 4.8 12.9 0.00 0.00 0.00 58 1020.9
20260505032517 17 0 1.6 4.8 0.00 0.00 0.00 60 1021.0
20260505031516 17 0 3.2 9.7 0.00 0.00 0.00 62 1021.0
20260505030518 16 270 3.2 6.4 0.00 0.00 0.00 64 1021.1
20260505025518 16 270 3.2 11.3 0.00 0.00 0.00 63 1021.2
20260505024518 17 0 3.2 4.8 0.00 0.00 0.00 62 1021.4
20260505023517 17 0 4.8 9.7 0.00 0.00 0.00 63 1021.4
20260505022518 17 270 3.2 8.0 0.00 0.00 0.00 67 1021.4
20260505021518 17 0 1.6 4.8 0.00 0.00 0.00 67 1021.6
20260505020518 17 248 1.6 6.4 0.00 0.00 0.00 68 1021.7
20260505015518 16 180 1.6 6.4 0.00 0.00 0.00 65 1021.9
20260505014518 16 0 1.6 8.0 0.00 0.00 0.00 67 1022.0
20260505013518 16 0 4.8 12.9 0.00 0.00 0.00 66 1021.9
20260505012518 16 0 3.2 16.1 0.00 0.00 0.00 67 1021.9
20260505011518 16 248 3.2 12.9 0.00 0.00 0.00 69 1022.0
20260505010518 16 0 3.2 6.4 0.00 0.00 0.00 69 1022.1
20260505005518 16 0 4.8 9.7 0.00 0.00 0.00 71 1022.1
20260505004518 16 0 3.2 6.4 0.00 0.00 0.00 74 1022.0
20260505003518 15 0 3.2 14.5 0.00 0.00 0.00 74 1022.0
20260505002518 15 0 3.2 9.7 0.00 0.00 0.00 75 1022.1
20260505001518 15 248 3.2 4.8 0.00 0.00 0.00 78 1022.1
20260505000518 15 270 1.6 6.4 0.00 0.00 0.00 80 1022.1
20260504235518 14 0 1.6 4.8 0.00 0.00 0.00 80 1022.1
20260504234518 13 0 3.2 12.9 0.00 0.00 0.00 82 1021.9
20260504233518 13 0 3.2 8.0 0.00 0.00 0.00 84 1022.0
20260504232518 13 0 3.2 8.0 0.00 0.00 0.00 85 1021.9
20260504231518 12 0 1.6 4.8 0.00 0.00 0.00 88 1021.8
20260504230518 12 270 3.2 9.7 0.00 0.00 0.00 91 1021.7
20260504225518 11 248 4.8 12.9 0.00 0.00 0.00 93 1021.8
20260504224518 11 270 3.2 11.3 0.00 0.00 0.00 94 1021.7
20260504223518 10 270 1.6 4.8 0.00 0.03 0.00 94 1021.6
20260504222518 10 0 1.6 4.8 0.00 0.03 0.00 94 1021.4
20260504221518 10 270 1.6 4.8 0.00 0.03 0.00 94 1021.2
20260504220518 9 0.0 3.2 0.00 0.03 0.00 93 1021.1
20260504215518 8 293 1.6 3.2 0.00 0.03 0.00 93 1021.0
20260504214518 8 0.0 3.2 0.00 0.03 0.00 92 1021.0
20260504213518 8 0.0 3.2 0.00 0.03 0.00 92 1020.9
20260504212518 8 0.0 3.2 0.00 0.03 0.00 91 1020.7
20260504211517 8 0.0 3.2 0.00 0.03 0.00 91 1020.5
20260504210518 8 0.0 3.2 0.00 0.03 0.00 91 1020.5
20260504205517 8 0.0 3.2 0.00 0.03 0.00 91 1020.3
20260504204518 8 0.0 3.2 0.00 0.03 0.00 91 1020.2
20260504203518 8 0.0 3.2 0.00 0.03 0.00 91 1020.2
20260504202517 8 0.0 3.2 0.00 0.03 0.00 91 1020.0
20260504201517 8 0.0 3.2 0.00 0.03 0.00 91 1019.9
20260504200517 8 0.0 3.2 0.00 0.03 0.00 91 1019.8
20260504195517 8 0.0 3.2 0.00 0.03 0.00 91 1019.6
20260504194517 8 0.0 0.0 0.00 0.03 0.00 91 1019.6
20260504193517 8 0.0 3.2 0.00 0.03 0.00 90 1019.5
20260504192518 8 0.0 3.2 0.00 0.03 0.00 90 1019.5
20260504191517 8 0.0 3.2 0.00 0.03 0.00 90 1019.3
20260504190517 8 0.0 3.2 0.00 0.03 0.00 90 1019.1
20260504185517 8 0.0 3.2 0.00 0.03 0.00 89 1019.1
20260504184517 9 0.0 3.2 0.00 0.03 0.00 89 1019.1
20260504183517 9 0.0 1.6 0.00 0.03 0.00 89 1019.0
20260504182517 9 0.0 3.2 0.00 0.03 0.00 89 1018.9
20260504181517 9 0.0 3.2 0.00 0.03 0.00 89 1018.9
20260504180517 9 0.0 1.6 0.00 0.03 0.00 89 1018.8
20260504175517 9 0 1.6 1.6 0.00 0.03 0.00 89 1018.7
20260504174517 9 0 1.6 1.6 0.00 0.03 0.00 89 1018.6
20260504173517 10 0 1.6 4.8 0.00 0.03 0.00 88 1018.6
20260504172517 10 0 1.6 3.2 0.00 0.03 0.00 88 1018.7
20260504171517 10 0 1.6 3.2 0.00 0.03 0.00 88 1018.6
20260504170517 10 0 1.6 3.2 0.00 0.03 0.00 87 1018.6
20260504150517 11 0.0 3.2 0.00 0.05 0.00 84 1018.4
20260504140517 11 0.0 1.6 0.00 0.18 0.00 81 1018.4
20260504130518 12 0 1.6 1.6 0.00 0.30 0.18 77 1018.4
20260504110518 14 293 3.2 6.4 0.00 0.51 0.18 67 1018.1